Moab, UT

9:22 AM MDT on October 19, 2019 (GMT -0600)
Canyonlands

Weather History for KCNY - August, 2019

Change the Weather History Date:

Thursday, August 8, 2019

  Actual Average Record
Temperature  
Mean Temperature 81 °F 79 °F  
Max Temperature 96 °F 94 °F 107 °F (1990)
Min Temperature 65 °F 64 °F 50 °F (1951)
Degree Days  
Heating Degree Days 0 0  
Month to date heating degree days 0 0  
Since 1 June heating degree days 23 17  
Since 1 July heating degree days 0 0  
Cooling Degree Days 16 14  
Month to date cooling degree days 144 118  
Year to date cooling degree days 917 911  
Since 1 June cooling degree days 902 847  
Growing Degree Days 30 (Base 50)    
Moisture  
Dew Point 49 °F    
Average Humidity 40    
Maximum Humidity 63    
Minimum Humidity 17    
Precipitation  
Precipitation 0.00 in 0.03 in 0.25 in (1949)
Month to date precipitation 0.02 0.22  
Year to date precipitation 6.17 4.76  
Sea Level Pressure  
Sea Level Pressure 29.82 in    
Wind  
Wind Speed 7 mph (WSW)    
Max Wind Speed 26 mph    
Max Gust Speed 33 mph    
Visibility 10 miles    
Events Thunderstorm    
T = Trace of Precipitation, MM = Missing Value Source: NWS Daily Summary

Daily Weather History Graph

Daily Weather History Graph

Search for Another Location

Airport or City:

Astronomy

Aug. 08, 2019 Rise Set
Actual Time 6:26 AM MDT 8:22 PM MDT
Civil Twilight 5:57 AM MDT 8:51 PM MDT
Nautical Twilight 5:22 AM MDT 9:26 PM MDT
Astronomical Twilight 4:44 AM MDT 10:04 PM MDT
Moon 3:02 PM MDT (8/8) 12:50 AM MDT (8/8)
Length of Visible Light 14h 53m
Length of Day
13h 55m
First Quarter, 61% of the Moon is Illuminated
Aug 8
First Quarter
Aug 15
Full
Aug 23
Last Quarter
Aug 30
New
Sep 5
First Quarter

Hourly Weather History & Observations

Time (MDT) Temp. Heat Index Dew Point Humidity Pressure Visibility Wind Dir Wind Speed Gust Speed Precip Events Conditions
12:53 AM 78.1 °F - 50.0 °F 37% 29.84 in 10.0 mi ESE 4.6 mph - N/A   Overcast
1:53 AM 78.1 °F - 50.0 °F 37% 29.82 in 10.0 mi East 4.6 mph - N/A   Mostly Cloudy
2:53 AM 75.0 °F - 51.1 °F 43% 29.81 in 10.0 mi SE 4.6 mph - N/A   Overcast
3:53 AM 73.9 °F - 51.1 °F 45% 29.82 in 10.0 mi Calm Calm - N/A   Mostly Cloudy
4:53 AM 71.1 °F - 51.1 °F 49% 29.83 in 10.0 mi North 4.6 mph - N/A   Scattered Clouds
5:53 AM 66.0 °F - 53.1 °F 63% 29.86 in 10.0 mi WSW 4.6 mph - N/A   Clear
6:53 AM 69.1 °F - 53.1 °F 57% 29.87 in 10.0 mi Calm Calm - N/A   Clear
7:53 AM 73.0 °F - 52.0 °F 48% 29.88 in 10.0 mi Calm Calm - N/A   Clear
8:53 AM 79.0 °F - 54.0 °F 42% 29.88 in 10.0 mi Variable 5.8 mph - N/A   Clear
9:53 AM 80.1 °F 80.0 °F 54.0 °F 40% 29.89 in - North - - N/A   Clear
10:53 AM 82.0 °F 81.2 °F 53.1 °F 37% 29.88 in 10.0 mi Calm Calm - N/A   Partly Cloudy
11:53 AM 86.0 °F - 51.1 °F 30% 29.86 in 10.0 mi Calm Calm - N/A   Partly Cloudy
12:53 PM 90.0 °F - 48.9 °F 24% 29.83 in 10.0 mi Variable 4.6 mph - N/A   Clear
1:53 PM 91.9 °F - 50.0 °F 24% 29.81 in 10.0 mi WNW 11.5 mph 19.6 mph N/A   Clear
2:13 PM 91.0 °F - 48.9 °F 23% 30.01 in 10.0 mi West 6.9 mph - N/A Thunderstorm Clear
2:28 PM 91.0 °F - 48.9 °F 23% 30.00 in 10.0 mi SE 8.1 mph - N/A   Clear
2:53 PM 91.0 °F - 48.9 °F 23% 29.79 in 10.0 mi Variable 4.6 mph - N/A   Clear
3:53 PM 93.9 °F - 45.0 °F 18% 29.75 in 10.0 mi South 11.5 mph 18.4 mph N/A   Scattered Clouds
4:53 PM 93.0 °F - 44.1 °F 18% 29.73 in 10.0 mi SSW 5.8 mph - N/A   Scattered Clouds
5:53 PM 93.9 °F - 44.1 °F 18% 29.73 in 10.0 mi Variable 6.9 mph - N/A   Partly Cloudy
6:53 PM 93.9 °F - 42.1 °F 17% 29.70 in 10.0 mi West 13.8 mph 19.6 mph N/A   Clear
7:53 PM 90.0 °F - 42.1 °F 19% 29.70 in 10.0 mi West 4.6 mph - N/A   Clear
8:53 PM 82.9 °F - 42.1 °F 24% 29.71 in 10.0 mi SW 4.6 mph - N/A   Clear
9:53 PM 82.9 °F - 48.0 °F 29% 29.76 in 10.0 mi NW 17.3 mph - N/A   Mostly Cloudy
10:53 PM 79.0 °F - 48.9 °F 35% 29.79 in 10.0 mi WNW 19.6 mph - N/A   Scattered Clouds
11:53 PM 78.1 °F - 48.9 °F 36% 29.81 in 10.0 mi West 12.7 mph - N/A   Clear